QPF
0.00 0.00 0.00 0.00 0.00 0.00 0.00 0.01 0.00 0.00 0.00 0.00 0.00 0.00 0.00 0.00 0.00 0.00 0.00 0.00 0.00 0.00 0.00 0.00 0.00 0.00 0.00 0.00 0.00 0.00 0.00 0.00 0.00 0.00 0.00 0.00 0.00 0.00 0.00 0.00 0.00 0.00 0.00 0.00
0.07 0.00 0.00 0.01 0.01 0.00 0.00 0.00 0.00 0.00 0.00 0.00 0.00 0.00 0.00 0.00 0.00 0.00 0.00 0.00 0.00 0.00 0.00 0.00 0.00 0.00 0.00 0.00 0.00 0.00 0.00 0.00 0.00 0.00 0.00 0.00 0.00 0.00 0.00 0.00 0.00 0.00 0.00 0.00
0.07 0.00 0.02 0.08 0.03 0.00 0.00 0.00 0.00 0.00 0.00 0.00 0.00 0.00 0.00 0.00 0.00 0.00 0.00 0.00 0.00 0.00 0.00 0.00 0.00 0.00 0.00 0.00 0.00 0.00 0.00 0.00 0.00 0.00 0.00 0.00 0.00 0.00 0.00 0.00 0.00 0.00 0.00 0.00
0.05 0.03 0.10 0.02 0.00 0.00 0.00 0.00 0.00 0.00 0.00 0.00 0.00 0.00 0.00 0.00 0.00 0.00 0.00 0.00 0.00 0.00 0.00 0.00 0.00 0.00 0.00 0.00 0.00 0.00 0.00 0.00 0.00 0.00 0.00 0.00 0.00 0.00 0.00 0.00 0.00 0.00 0.00 0.00
0.12 0.08 0.03 0.00 0.00 0.00 0.00 0.00 0.00 0.00 0.00 0.00 0.00 0.00 0.00 0.00 0.00 0.00 0.00 0.00 0.00 0.00 0.00 0.00 0.00 0.00 0.00 0.00 0.00 0.00 0.00 0.00 0.00 0.00 0.00 0.00 0.00 0.00 0.00 0.00 0.00 0.00 0.00 0.00
0.06 0.08 0.06 0.00 0.00 0.00 0.00 0.00 0.00 0.00 0.00 0.00 0.00 0.00 0.00 0.00 0.00 0.00 0.00 0.00 0.00 0.00 0.00 0.00 0.00 0.00 0.00 0.00 0.00 0.00 0.00 0.00 0.00 0.00 0.00 0.00 0.00 0.00 0.00 0.00 0.00 0.00 0.00 0.00
0.02 0.02 0.01 0.00 0.00 0.00 0.00 0.00 0.00 0.00 0.00 0.00 0.00 0.00 0.00 0.00 0.00 0.00 0.00 0.00 0.00 0.00 0.00 0.00 0.00 0.00 0.00 0.00 0.00 0.00 0.00 0.00 0.00 0.00 0.00 0.00 0.00 0.00 0.00 0.00 0.00 0.00 0.00 0.00
0.05 0.07 0.03 0.00 0.00 0.00 0.00 0.00 0.00 0.00 0.00 0.00 0.00 0.00 0.00 0.00 0.00 0.00 0.00 0.00 0.00 0.00 0.00 0.00 0.00 0.00 0.00 0.00 0.00 0.00 0.00 0.00 0.00 0.00 0.00 0.00 0.00 0.00 0.00 0.00 0.00 0.00 0.00 0.00
0.01 0.01 0.00 0.00 0.00 0.00 0.00 0.00 0.00 0.00 0.00 0.00 0.00 0.00 0.00 0.00 0.00 0.00 0.00 0.00 0.00 0.00 0.00 0.00 0.00 0.00 0.00 0.00 0.00 0.00 0.00 0.00 0.00 0.00 0.00 0.00 0.00 0.00 0.00 0.00 0.00 0.00 0.00 0.00
0.02 0.00 0.00 0.00 0.00 0.00 0.00 0.00 0.00 0.00 0.00 0.00 0.00 0.00 0.00 0.00 0.00 0.00 0.00 0.00 0.00 0.00 0.00 0.00 0.00 0.00 0.00 0.00 0.00 0.00 0.00 0.00 0.00 0.00 0.00 0.00 0.00 0.00 0.00 0.01 0.00 0.00 0.00 0.00
0.01 0.00 0.00 0.00 0.00 0.00 0.00 0.00 0.00 0.00 0.00 0.00 0.00 0.00 0.00 0.00 0.00 0.00 0.00 0.00 0.00 0.00 0.00 0.00 0.00 0.00 0.00 0.00 0.00 0.00 0.00 0.00 0.00 0.00 0.00 0.00 0.00 0.00 0.00 0.00 0.00 0.00 0.00 0.00
0.01 0.02 0.01 0.00 0.01 0.01 0.01 0.01 0.00 0.00 0.00 0.00 0.00 0.00 0.00 0.00 0.00 0.00 0.00 0.00 0.00 0.00 0.00 0.00 0.00 0.00 0.00 0.00 0.00 0.00 0.00 0.00 0.00 0.00 0.00 0.00 0.00 0.00 0.00 0.00 0.00 0.00 0.00 0.00
0.00 0.01 0.02 0.01 0.02 0.03 0.01 0.00 0.00 0.00 0.00 0.00 0.00 0.00 0.00 0.00 0.00 0.00 0.00 0.00 0.00 0.00 0.00 0.00 0.00 0.00 0.00 0.00 0.00 0.00 0.00 0.00 0.00 0.00 0.00 0.00 0.00 0.00 0.00 0.00 0.00 0.00 0.00 0.00
0.01 0.04 0.04 0.02 0.01 0.00 0.00 0.00 0.00 0.00 0.00 0.00 0.00 0.00 0.00 0.00 0.00 0.00 0.00 0.00 0.00 0.00 0.00 0.00 0.00 0.00 0.00 0.00 0.00 0.00 0.00 0.00 0.00 0.00 0.00 0.00 0.00 0.00 0.00 0.00 0.00 0.00 0.00 0.00
0.01 0.01 0.02 0.01 0.01 0.01 0.00 0.00 0.00 0.00 0.00 0.00 0.00 0.00 0.00 0.00 0.00 0.00 0.00 0.00 0.00 0.00 0.00 0.00 0.00 0.00 0.00 0.00 0.00 0.00 0.00 0.00 0.00 0.00 0.00 0.00 0.00 0.00 0.00 0.00 0.00 0.00 0.00 0.00
0.00 0.00 0.00 0.00 0.00 0.00 0.00 0.00 0.00 0.00 0.00 0.00 0.00 0.00 0.00 0.00 0.00 0.00 0.00 0.00 0.00 0.00 0.00 0.00 0.00 0.00 0.00 0.00 0.00 0.00 0.00 0.00 0.00 0.00 0.00 0.00 0.00 0.00 0.00 0.00 0.00 0.00 0.00 0.00
0.00 0.00 0.00 0.00 0.00 0.00 0.00 0.00 0.00 0.00 0.00 0.00 0.00 0.00 0.00 0.00 0.00 0.00 0.00 0.00 0.00 0.00 0.00 0.00 0.00 0.00 0.00 0.00 0.00 0.00 0.00 0.00 0.00 0.00 0.00 0.00 0.00 0.00 0.00 0.00 0.00 0.00 0.00 0.00
0.00 0.00 0.00 0.00 0.00 0.00 0.00 0.00 0.00 0.00 0.00 0.00 0.00 0.00 0.00 0.00 0.00 0.00 0.00 0.00 0.00 0.00 0.00 0.00 0.00 0.00 0.00 0.00 0.00 0.00 0.00 0.00 0.00 0.00 0.00 0.00 0.00 0.00 0.00 0.00 0.00 0.00 0.00 0.00
0.00 0.00 0.00 0.00 0.00 0.00 0.00 0.00 0.00 0.00 0.00 0.00 0.00 0.00 0.00 0.00 0.00 0.00 0.00 0.00 0.00 0.00 0.00 0.00 0.00 0.00 0.00 0.00 0.00 0.00 0.00 0.00 0.00 0.00 0.00 0.00 0.00 0.00 0.00 0.00 0.00 0.00 0.00 0.00
0.00 0.00 0.00 0.00 0.00 0.00 0.00 0.00 0.00 0.00 0.00 0.00 0.00 0.00 0.00 0.00 0.00 0.00 0.00 0.00 0.00 0.00 0.00 0.00 0.00 0.00 0.00 0.00 0.00 0.00 0.00 0.00 0.00 0.00 0.00 0.00 0.00 0.00 0.00 0.00 0.00 0.00 0.00 0.00
0.00 0.00 0.00 0.00 0.00 0.00 0.00 0.00 0.00 0.00 0.00 0.00 0.00 0.00 0.00 0.00 0.00 0.00 0.00 0.00 0.00 0.00 0.00 0.00 0.00 0.00 0.00 0.00 0.00 0.00 0.00 0.00 0.00 0.00 0.00 0.00 0.00 0.00 0.00 0.00 0.00 0.00 0.00 0.00
0.00 0.00 0.00 0.00 0.00 0.00 0.00 0.00 0.00 0.00 0.00 0.00 0.00 0.00 0.00 0.00 0.00 0.00 0.00 0.00 0.00 0.00 0.00 0.00 0.00 0.00 0.00 0.00 0.00 0.00 0.00 0.00 0.00 0.00 0.00 0.00 0.00 0.00 0.00 0.00 0.00 0.00 0.00 0.00
0.00 0.00 0.00 0.00 0.00 0.00 0.00 0.00 0.00 0.00 0.00 0.00 0.00 0.00 0.00 0.00 0.00 0.00 0.00 0.00 0.00 0.00 0.00 0.00 0.00 0.00 0.00 0.00 0.00 0.00 0.00 0.00 0.00 0.00 0.00 0.00 0.01 0.01 0.00 0.00 0.00 0.00 0.00 0.00
0.00 0.00 0.00 0.00 0.00 0.00 0.00 0.00 0.00 0.00 0.00 0.00 0.00 0.00 0.00 0.00 0.00 0.00 0.00 0.00 0.00 0.00 0.00 0.00 0.00 0.00 0.00 0.00 0.00 0.01 0.00 0.01 0.01 0.01 0.01 0.00 0.00 0.00 0.01 0.01 0.01 0.00 0.00 0.00
0.00 0.00 0.00 0.00 0.00 0.00 0.00 0.00 0.00 0.00 0.00 0.00 0.00 0.00 0.00 0.00 0.00 0.00 0.00 0.00 0.00 0.00 0.00 0.00 0.00 0.00 0.00 0.00 0.01 0.01 0.01 0.01 0.01 0.01 0.00 0.00 0.00 0.00 0.00 0.00 0.00 0.00 0.00 0.00
0.00 0.00 0.00 0.00 0.00 0.00 0.00 0.00 0.00 0.00 0.00 0.00 0.00 0.00 0.00 0.00 0.00 0.00 0.00 0.00 0.00 0.00 0.00 0.01 0.00 0.00 0.00 0.01 0.01 0.01 0.01 0.01 0.00 0.00 0.00 0.00 0.00 0.00 0.00 0.00 0.00 0.00 0.00 0.00
0.00 0.00 0.00 0.00 0.00 0.00 0.00 0.00 0.00 0.00 0.00 0.00 0.00 0.00 0.00 0.00 0.00 0.00 0.00 0.00 0.00 0.00 0.00 0.01 0.01 0.00 0.00 0.01 0.01 0.01 0.01 0.00 0.00 0.00 0.00 0.00 0.00 0.00 0.00 0.00 0.00 0.00 0.00 0.00
MSLP
1008.86 1007.09 1006.19 1004.98 1005.24 1005.27 1005.09 1004.77 1004.76 1003.63 1003.88 1002.85 1003.69 1004.00 1004.90 1005.33 1005.79 1006.94 1008.02 1009.65 1011.62 1013.71 1016.46 1018.20 1019.36 1019.76 1020.24 1020.84 1021.27 1021.74 1021.66 1021.88 1022.09 1022.20 1022.09 1022.06 1022.16 1022.18 1022.01 1021.98 1021.71 1021.51 1021.43 1021.55
1010.32 1008.74 1007.34 1006.09 1005.30 1004.14 1004.31 1004.42 1004.03 1004.16 1003.88 1003.17 1003.11 1003.36 1003.28 1004.49 1005.45 1006.16 1007.56 1009.31 1011.43 1013.55 1015.72 1017.38 1018.28 1019.00 1019.92 1020.71 1021.36 1021.61 1021.79 1022.00 1022.11 1022.16 1021.93 1021.99 1022.02 1021.88 1021.82 1021.73 1021.50 1021.22 1020.96 1021.11
1010.07 1008.67 1007.29 1006.31 1005.26 1004.58 1003.75 1003.81 1003.51 1002.76 1001.90 1002.93 1002.95 1003.04 1003.65 1004.25 1004.82 1005.79 1007.19 1009.21 1011.55 1013.30 1015.19 1016.80 1017.96 1018.91 1019.67 1020.59 1021.34 1021.53 1022.00 1022.00 1022.07 1022.08 1021.99 1021.97 1021.82 1021.81 1021.78 1021.54 1021.30 1020.99 1020.78 1020.99
1009.82 1009.06 1006.92 1004.59 1003.33 1002.88 1002.64 1002.52 1002.55 1002.33 1002.10 1002.23 1002.41 1002.66 1003.43 1004.41 1004.87 1005.81 1007.20 1009.51 1011.69 1013.63 1015.62 1017.19 1018.41 1019.19 1020.10 1020.82 1021.39 1021.64 1021.97 1022.13 1022.04 1022.17 1022.06 1021.92 1021.87 1021.86 1021.76 1021.54 1021.19 1020.86 1020.73 1020.80
1009.93 1008.38 1006.37 1004.69 1002.89 1002.34 1002.30 1001.75 1001.34 1001.52 1001.57 1001.73 1003.12 1004.47 1005.34 1005.39 1005.51 1006.68 1008.17 1010.31 1012.42 1014.39 1016.18 1017.63 1018.58 1019.57 1020.18 1020.81 1021.39 1021.79 1022.09 1022.24 1022.30 1022.35 1022.13 1022.04 1021.94 1021.93 1021.70 1021.47 1021.18 1021.02 1020.86 1020.84
1009.01 1007.56 1005.85 1003.39 1002.17 1002.24 1002.58 1001.66 1000.70 1000.59 1000.86 1001.85 1003.78 1004.97 1005.06 1006.43 1006.63 1007.93 1009.69 1011.67 1013.56 1015.19 1016.75 1017.97 1018.77 1019.56 1020.14 1020.97 1021.56 1021.92 1022.41 1022.58 1022.61 1022.51 1022.38 1022.24 1022.25 1021.99 1021.78 1021.49 1021.26 1021.08 1021.00 1020.90
1007.83 1006.44 1004.79 1003.34 1002.38 1002.49 1002.53 1000.97 1000.53 1000.27 1000.84 1001.58 1003.60 1005.10 1006.19 1007.16 1008.26 1009.71 1011.33 1013.07 1014.60 1016.10 1017.06 1018.23 1019.12 1019.68 1020.34 1021.18 1021.91 1022.47 1022.68 1022.84 1022.81 1022.71 1022.67 1022.65 1022.45 1022.09 1021.94 1021.65 1021.56 1021.43 1021.41 1021.08
1006.98 1005.53 1004.09 1002.66 1001.92 1001.85 1002.05 1001.74 1001.73 1001.62 1001.84 1003.30 1004.95 1006.53 1007.57 1008.73 1010.11 1011.56 1013.11 1014.78 1015.48 1016.59 1017.71 1018.61 1019.32 1019.71 1020.41 1021.49 1022.41 1022.72 1022.89 1022.99 1022.96 1023.11 1023.15 1022.98 1022.76 1022.37 1022.32 1022.20 1022.02 1021.96 1021.83 1021.59
1004.90 1003.60 1002.90 1002.13 1001.31 1001.59 1002.69 1002.76 1003.14 1003.09 1003.60 1005.20 1006.29 1007.37 1008.78 1010.17 1011.66 1012.89 1014.38 1015.26 1016.32 1017.35 1018.28 1019.05 1019.62 1020.05 1020.79 1021.94 1022.45 1022.90 1023.33 1023.45 1023.45 1023.64 1023.74 1023.44 1023.21 1022.96 1022.96 1023.07 1022.93 1022.76 1022.58 1022.38
1004.21 1003.19 1002.36 1002.00 1002.68 1003.34 1003.60 1003.62 1004.18 1004.27 1004.94 1006.07 1007.26 1008.52 1009.62 1011.10 1012.41 1013.64 1014.80 1015.76 1016.83 1017.82 1018.51 1019.42 1020.41 1020.93 1021.46 1022.31 1022.66 1023.32 1023.92 1024.14 1024.27 1024.34 1024.32 1023.98 1023.71 1023.65 1023.71 1023.94 1024.01 1023.76 1023.53 1023.31
1002.89 1002.81 1002.79 1002.62 1003.00 1003.53 1004.56 1004.46 1004.79 1005.49 1006.17 1006.97 1008.22 1009.32 1010.40 1011.48 1012.85 1014.15 1015.35 1016.38 1017.09 1017.93 1018.88 1019.92 1020.77 1021.38 1022.02 1022.54 1022.91 1023.22 1023.98 1024.25 1024.50 1024.29 1024.23 1023.97 1023.86 1024.01 1024.19 1024.33 1024.73 1024.53 1024.20 1023.94
1002.19 1002.77 1003.35 1003.18 1003.98 1004.61 1005.01 1005.16 1005.85 1006.40 1007.07 1008.21 1008.71 1009.95 1011.11 1012.20 1013.57 1014.98 1016.07 1016.79 1017.59 1018.55 1019.50 1020.42 1021.09 1021.77 1022.43 1022.90 1023.34 1023.54 1023.87 1024.16 1024.40 1024.24 1024.11 1024.00 1023.97 1023.90 1024.36 1024.63 1024.65 1024.47 1024.32 1023.99
1001.59 1002.82 1003.90 1004.36 1004.50 1004.78 1005.00 1005.28 1006.13 1006.89 1007.83 1008.30 1009.51 1010.75 1011.96 1013.10 1014.64 1015.89 1016.78 1017.58 1018.32 1019.23 1020.16 1020.86 1021.58 1022.28 1022.96 1023.54 1023.90 1024.30 1024.31 1024.53 1024.26 1024.25 1024.21 1024.19 1024.13 1024.12 1023.91 1023.68 1023.63 1023.64 1023.78 1023.57
1002.31 1003.76 1004.59 1004.95 1005.01 1005.13 1005.37 1005.84 1006.72 1007.48 1008.29 1009.16 1010.32 1011.65 1012.90 1014.37 1016.08 1017.11 1018.08 1018.83 1019.61 1020.63 1021.48 1021.93 1022.62 1023.67 1024.20 1024.49 1024.88 1025.11 1024.79 1025.06 1024.53 1024.41 1024.45 1024.45 1024.36 1024.23 1024.12 1023.84 1023.49 1023.24 1023.17 1023.21
1002.62 1003.63 1004.56 1005.58 1006.00 1006.03 1006.25 1006.73 1007.34 1008.16 1009.12 1010.23 1011.46 1012.55 1014.12 1015.90 1017.17 1018.39 1019.55 1020.34 1021.27 1022.11 1022.71 1023.28 1023.86 1024.44 1024.80 1025.05 1025.03 1024.99 1024.66 1024.65 1024.82 1024.67 1024.62 1024.69 1024.33 1024.22 1024.07 1023.84 1023.60 1023.26 1023.00 1022.88
1002.77 1003.67 1004.57 1005.18 1005.49 1005.89 1006.43 1007.14 1007.83 1008.79 1009.87 1010.99 1012.17 1013.66 1015.28 1016.74 1018.05 1019.57 1020.57 1021.29 1021.73 1022.39 1023.28 1023.80 1024.16 1024.58 1025.10 1025.14 1024.92 1024.72 1024.71 1025.17 1025.19 1024.57 1024.42 1024.28 1024.19 1024.14 1023.96 1023.82 1023.58 1023.27 1023.03 1023.02
1002.88 1003.47 1004.22 1004.67 1005.21 1005.89 1006.46 1007.25 1008.26 1009.28 1010.39 1011.55 1013.00 1014.44 1015.95 1017.38 1018.96 1020.19 1021.11 1021.71 1021.98 1022.87 1023.48 1023.88 1024.28 1024.90 1025.04 1025.04 1024.71 1024.08 1024.14 1024.32 1024.96 1024.38 1024.21 1024.26 1024.23 1024.15 1023.99 1023.79 1023.54 1023.27 1023.05 1023.07
1002.32 1002.97 1003.62 1004.49 1005.19 1005.82 1006.66 1007.83 1008.94 1010.00 1011.16 1012.56 1014.09 1015.50 1016.80 1018.15 1019.07 1020.39 1021.31 1021.90 1022.55 1023.11 1023.43 1023.80 1024.34 1024.79 1024.85 1024.76 1024.68 1024.21 1024.27 1024.32 1024.37 1024.37 1024.36 1024.19 1024.38 1024.27 1023.90 1023.77 1023.56 1023.25 1023.04 1022.90
1002.57 1002.81 1003.53 1004.63 1005.54 1006.46 1007.63 1008.74 1009.82 1011.18 1012.72 1014.11 1015.34 1016.57 1017.71 1018.57 1019.53 1020.54 1021.44 1022.05 1022.49 1022.75 1023.23 1023.92 1024.21 1024.34 1024.32 1024.62 1024.66 1024.26 1024.28 1024.49 1024.33 1024.20 1024.32 1024.37 1024.07 1023.95 1023.87 1023.71 1023.48 1023.28 1023.03 1022.81
1002.79 1003.24 1004.42 1005.38 1006.45 1007.68 1008.74 1009.90 1011.28 1012.93 1014.27 1015.29 1016.33 1017.34 1018.13 1018.95 1019.80 1020.66 1021.30 1021.53 1021.51 1021.46 1022.33 1023.14 1023.68 1023.78 1023.94 1024.36 1024.71 1023.98 1024.28 1024.46 1024.33 1024.23 1024.20 1024.49 1024.09 1024.00 1023.79 1023.60 1023.49 1023.26 1023.07 1022.85
1004.52 1005.21 1005.95 1006.92 1008.04 1009.14 1010.35 1011.40 1012.52 1013.78 1014.99 1015.95 1016.56 1017.41 1018.21 1019.12 1019.99 1020.59 1020.98 1020.83 1021.29 1022.12 1022.31 1023.00 1023.09 1023.11 1023.60 1023.82 1024.32 1024.02 1024.23 1024.33 1024.30 1024.20 1024.15 1024.09 1023.99 1023.75 1023.63 1023.46 1023.30 1023.15 1023.00 1022.78
1006.01 1006.73 1007.77 1008.81 1009.64 1010.81 1011.90 1012.76 1013.63 1014.62 1015.60 1016.44 1017.10 1017.84 1018.47 1019.22 1020.03 1020.43 1020.36 1020.45 1020.75 1021.93 1022.22 1022.60 1022.81 1023.18 1023.33 1024.01 1023.82 1023.99 1024.04 1024.08 1024.14 1024.14 1024.07 1023.98 1023.81 1023.64 1023.45 1023.28 1023.13 1022.98 1022.93 1022.77
1007.62 1008.41 1009.26 1010.09 1010.83 1011.73 1012.72 1013.68 1014.52 1015.16 1015.82 1016.61 1017.28 1017.80 1018.11 1018.51 1019.16 1019.46 1019.73 1020.47 1020.55 1021.88 1021.83 1021.83 1022.44 1023.35 1023.94 1024.12 1023.75 1023.77 1023.88 1023.94 1023.97 1023.94 1023.89 1023.78 1023.68 1023.50 1023.32 1023.15 1023.01 1022.88 1022.81 1022.74
1008.72 1009.52 1010.24 1010.95 1011.65 1012.35 1013.13 1014.17 1014.76 1015.49 1016.04 1016.72 1017.24 1017.65 1017.70 1018.17 1018.64 1018.88 1018.89 1019.58 1020.37 1021.49 1021.71 1021.88 1022.77 1023.37 1023.86 1023.78 1023.60 1023.62 1023.69 1023.69 1023.71 1023.70 1023.57 1023.71 1023.51 1023.30 1023.09 1022.91 1022.77 1022.73 1022.76 1022.81
1009.39 1010.07 1010.73 1011.24 1011.65 1012.16 1013.18 1014.02 1014.86 1015.61 1016.18 1016.46 1017.20 1017.58 1017.61 1017.73 1018.10 1018.70 1019.38 1020.25 1020.77 1021.45 1021.69 1022.32 1022.73 1023.23 1023.55 1023.44 1023.29 1023.30 1023.43 1023.49 1023.52 1023.66 1023.76 1023.66 1023.51 1023.41 1023.24 1023.15 1023.13 1023.12 1023.19 1023.19
1009.79 1010.09 1010.67 1010.99 1011.21 1012.14 1012.97 1013.79 1014.23 1014.97 1015.43 1016.10 1016.90 1017.38 1017.70 1017.94 1018.47 1018.90 1019.50 1020.08 1020.74 1021.36 1021.30 1021.89 1022.44 1022.93 1022.95 1022.90 1022.96 1023.07 1023.18 1023.32 1023.54 1023.63 1023.90 1023.85 1023.67 1023.67 1023.60 1023.58 1023.59 1023.54 1023.46 1023.38
1009.92 1010.26 1010.83 1011.28 1011.73 1012.28 1012.92 1013.34 1013.97 1014.66 1015.23 1015.63 1016.22 1017.10 1017.64 1018.18 1018.63 1018.91 1019.47 1019.94 1020.43 1020.96 1021.25 1021.44 1021.80 1022.29 1022.38 1022.50 1022.67 1022.87 1023.12 1023.35 1023.70 1024.10 1024.35 1024.17 1024.05 1023.98 1023.97 1024.02 1024.08 1024.08 1024.01 1023.85
Thickness
5544 5565 5570 5576 5566 5567 5567 5572 5557 5584 5573 5601 5591 5580 5575 5575 5571 5564 5554 5541 5526 5507 5480 5462 5451 5446 5440 5430 5422 5413 5408 5400 5392 5386 5381 5375 5368 5360 5353 5345 5340 5337 5332 5326
5494 5523 5534 5538 5553 5573 5564 5562 5563 5563 5560 5591 5594 5586 5581 5572 5561 5555 5545 5532 5514 5496 5478 5461 5452 5444 5432 5421 5410 5402 5395 5387 5381 5374 5371 5364 5356 5349 5341 5336 5334 5331 5328 5321
5493 5519 5523 5509 5530 5547 5557 5558 5558 5553 5581 5581 5572 5572 5566 5559 5558 5551 5539 5523 5503 5488 5473 5458 5445 5434 5423 5410 5398 5392 5383 5377 5370 5364 5359 5351 5345 5338 5333 5331 5328 5325 5321 5314
5487 5500 5497 5537 5561 5560 5554 5558 5559 5558 5567 5573 5569 5569 5561 5556 5549 5541 5529 5510 5491 5475 5457 5442 5429 5419 5407 5396 5387 5380 5372 5365 5360 5353 5346 5340 5335 5330 5326 5323 5321 5318 5314 5307
5477 5489 5507 5522 5548 5546 5539 5549 5564 5555 5562 5565 5549 5536 5529 5536 5536 5526 5512 5494 5476 5457 5440 5426 5415 5403 5395 5386 5377 5368 5360 5354 5347 5339 5334 5331 5327 5322 5319 5316 5313 5309 5304 5298
5482 5482 5488 5529 5543 5545 5532 5532 5560 5560 5559 5552 5532 5520 5531 5518 5519 5508 5492 5474 5456 5441 5425 5412 5402 5393 5386 5374 5365 5357 5348 5340 5333 5328 5325 5321 5317 5314 5311 5308 5305 5300 5294 5287
5474 5475 5493 5523 5537 5529 5508 5543 5554 5559 5556 5551 5529 5522 5514 5508 5497 5484 5469 5452 5436 5423 5412 5399 5389 5382 5374 5363 5352 5342 5335 5327 5322 5319 5315 5311 5308 5306 5302 5299 5294 5288 5281 5276
5461 5460 5473 5528 5528 5514 5524 5530 5531 5537 5541 5528 5513 5501 5494 5484 5470 5456 5442 5426 5420 5409 5396 5386 5378 5373 5364 5350 5337 5329 5322 5317 5314 5309 5304 5301 5298 5296 5291 5286 5281 5274 5268 5262
5478 5488 5503 5514 5520 5518 5509 5510 5509 5516 5515 5501 5490 5484 5473 5460 5445 5434 5421 5414 5404 5392 5381 5373 5366 5361 5351 5335 5326 5317 5309 5306 5303 5297 5292 5289 5286 5283 5277 5270 5264 5258 5252 5245
5469 5484 5495 5501 5495 5489 5490 5495 5494 5497 5493 5484 5473 5463 5454 5443 5431 5420 5410 5401 5390 5379 5372 5362 5350 5342 5335 5322 5314 5305 5296 5291 5288 5283 5279 5276 5274 5269 5262 5252 5244 5239 5233 5225
5470 5478 5482 5487 5485 5482 5474 5480 5481 5478 5473 5468 5455 5447 5441 5433 5420 5409 5397 5387 5380 5372 5361 5349 5338 5329 5319 5311 5304 5300 5289 5284 5278 5276 5271 5268 5264 5257 5248 5240 5229 5222 5216 5208
5468 5471 5465 5475 5467 5463 5458 5459 5458 5458 5454 5444 5444 5435 5428 5419 5407 5394 5384 5377 5370 5359 5348 5336 5327 5317 5307 5300 5294 5290 5284 5278 5271 5268 5264 5259 5253 5246 5238 5228 5219 5211 5202 5195
5473 5462 5453 5449 5449 5449 5449 5454 5451 5447 5437 5435 5429 5421 5412 5404 5391 5380 5373 5366 5357 5345 5334 5326 5316 5306 5296 5288 5282 5275 5272 5266 5265 5259 5254 5248 5242 5235 5229 5221 5212 5205 5194 5185
5457 5440 5432 5433 5435 5442 5443 5441 5436 5433 5429 5424 5416 5407 5399 5386 5368 5360 5352 5344 5335 5324 5314 5308 5299 5286 5279 5273 5266 5260 5259 5252 5253 5248 5242 5236 5230 5224 5216 5211 5205 5197 5186 5176
5445 5437 5429 5421 5418 5423 5428 5426 5423 5418 5413 5408 5401 5395 5381 5363 5352 5342 5330 5322 5312 5302 5295 5287 5280 5272 5266 5260 5256 5252 5250 5246 5240 5236 5230 5223 5220 5213 5206 5200 5193 5186 5178 5168
5436 5433 5424 5420 5422 5423 5421 5418 5415 5409 5403 5397 5390 5378 5363 5349 5339 5324 5315 5308 5303 5296 5284 5276 5271 5264 5255 5250 5247 5245 5240 5231 5226 5226 5221 5216 5210 5203 5197 5189 5182 5175 5168 5157
5429 5426 5424 5424 5423 5418 5418 5417 5410 5404 5396 5389 5378 5366 5352 5340 5324 5312 5304 5299 5297 5285 5276 5269 5262 5252 5246 5242 5240 5241 5235 5229 5217 5217 5212 5205 5199 5192 5185 5179 5172 5165 5157 5146
5435 5432 5431 5425 5420 5419 5417 5409 5401 5395 5388 5378 5362 5348 5337 5325 5319 5305 5297 5291 5282 5273 5268 5261 5252 5244 5239 5235 5230 5229 5223 5218 5212 5206 5200 5195 5187 5180 5176 5168 5161 5155 5147 5137
5433 5435 5433 5423 5417 5413 5405 5398 5393 5383 5367 5351 5341 5332 5323 5318 5308 5298 5288 5279 5271 5265 5260 5250 5243 5238 5233 5226 5220 5218 5213 5205 5201 5197 5190 5183 5179 5172 5165 5158 5152 5144 5136 5128
5433 5431 5421 5415 5409 5400 5394 5387 5374 5356 5345 5337 5328 5320 5314 5307 5298 5287 5279 5274 5273 5270 5258 5247 5238 5232 5226 5218 5209 5211 5203 5195 5191 5186 5180 5171 5168 5161 5155 5148 5141 5133 5125 5117
5414 5410 5406 5399 5391 5379 5370 5364 5354 5343 5335 5327 5323 5314 5307 5297 5287 5279 5272 5275 5265 5253 5248 5237 5233 5228 5219 5212 5203 5200 5193 5186 5181 5176 5170 5164 5158 5153 5145 5139 5131 5124 5116 5108
5393 5390 5380 5373 5369 5361 5354 5349 5342 5333 5325 5319 5312 5304 5297 5288 5277 5272 5271 5269 5260 5245 5238 5231 5224 5216 5211 5200 5197 5190 5184 5178 5172 5166 5160 5154 5149 5142 5136 5129 5122 5114 5106 5098
5376 5372 5367 5362 5358 5352 5344 5336 5329 5324 5318 5310 5302 5296 5292 5287 5277 5272 5266 5255 5251 5234 5231 5227 5216 5204 5195 5189 5187 5182 5175 5169 5162 5156 5151 5145 5139 5132 5126 5119 5112 5104 5096 5087
5367 5363 5358 5353 5346 5341 5335 5326 5322 5315 5309 5302 5295 5289 5288 5280 5272 5267 5263 5252 5241 5227 5221 5216 5203 5193 5185 5181 5177 5172 5166 5160 5154 5148 5143 5134 5129 5123 5117 5111 5103 5094 5085 5075
5360 5355 5349 5346 5345 5343 5330 5323 5315 5307 5301 5298 5287 5281 5278 5274 5267 5258 5248 5235 5226 5216 5210 5200 5193 5184 5177 5173 5169 5163 5157 5150 5144 5137 5130 5123 5118 5111 5104 5097 5088 5079 5069 5060
5354 5356 5351 5349 5349 5338 5329 5320 5318 5307 5301 5292 5282 5274 5267 5262 5253 5245 5235 5226 5215 5205 5202 5192 5183 5175 5170 5166 5160 5154 5147 5141 5133 5126 5117 5111 5106 5098 5090 5082 5073 5064 5056 5048
5351 5349 5344 5340 5335 5330 5322 5318 5310 5300 5293 5287 5279 5267 5258 5249 5241 5234 5224 5215 5206 5196 5189 5184 5177 5168 5163 5158 5151 5144 5137 5130 5121 5111 5103 5097 5091 5084 5075 5066 5057 5049 5041 5033